• In Belarus
  • List of Countries
  • For 7 days
  • Water Temperature
  • Satellite Maps
  • Weather Map
  • Weather Widgets
  • user-avatar
    Login

    Hourly Weather Bartodzieje

    Today, 18 July, Wednesday

    Time Temperature Precipitation Wind Pressure Humidity
    00:00 +19°C° 0.5 mm 5 mps 749 mmHg 94%
    01:00 +19°C° 0.5 mm 5 mps 749 mmHg 95%
    02:00 +19°C° 1.4 mm 5 mps 749 mmHg 95%
    03:00 +19°C° 1.4 mm 6 mps 749 mmHg 95%
    04:00 +19°C° 1.4 mm 6 mps 749 mmHg 94%
    05:00 +18°C° 1.5 mm 7 mps 749 mmHg 94%
    06:00 +18°C° 1.5 mm 7 mps 749 mmHg 94%
    07:00 +18°C° 1.5 mm 7 mps 749 mmHg 94%
    08:00 +18°C° 1.6 mm 7 mps 750 mmHg 94%
    09:00 +18°C° 1.6 mm 7 mps 750 mmHg 93%
    10:00 +18°C° 1.6 mm 7 mps 750 mmHg 93%
    11:00 +18°C° 0.9 mm 7 mps 751 mmHg 92%
    12:00 +20°C° 0.9 mm 7 mps 751 mmHg 92%
    13:00 +20°C° 0.9 mm 7 mps 751 mmHg 91%
    14:00 +20°C° 0.3 mm 7 mps 751 mmHg 90%
    15:00 +20°C° 0.3 mm 7 mps 751 mmHg 89%
    16:00 +21°C° 0.3 mm 6 mps 752 mmHg 87%
    17:00 +20°C° 0.1 mm 6 mps 752 mmHg 88%
    18:00 +20°C° 0.1 mm 5 mps 752 mmHg 89%
    19:00 +20°C° 0.1 mm 5 mps 752 mmHg 89%
    20:00 +20°C° 0.1 mm 5 mps 753 mmHg 91%
    21:00 +19°C° 0.1 mm 4 mps 753 mmHg 92%
    22:00 +19°C° 0.1 mm 4 mps 753 mmHg 93%
    23:00 +19°C° 0 mm 4 mps 753 mmHg 93%

    Tomorrow, 19 July, Thursday

    Time Temperature Precipitation Wind Pressure Humidity
    00:00 +19°C° 0 mm 4 mps 753 mmHg 94%
    01:00 +18°C° 0 mm 3 mps 753 mmHg 95%
    02:00 +18°C° 0 mm 4 mps 753 mmHg 95%
    03:00 +18°C° 0 mm 4 mps 753 mmHg 95%
    04:00 +18°C° 0 mm 4 mps 753 mmHg 95%
    05:00 +18°C° 0 mm 4 mps 753 mmHg 94%
    06:00 +19°C° 0 mm 4 mps 753 mmHg 92%
    07:00 +19°C° 0 mm 5 mps 754 mmHg 91%
    08:00 +19°C° 0.5 mm 5 mps 754 mmHg 92%
    09:00 +19°C° 0.5 mm 5 mps 754 mmHg 92%
    10:00 +19°C° 0.5 mm 5 mps 754 mmHg 93%
    11:00 +19°C° 0.7 mm 5 mps 754 mmHg 93%
    12:00 +19°C° 0.7 mm 5 mps 754 mmHg 93%
    13:00 +19°C° 0.7 mm 5 mps 754 mmHg 93%
    14:00 +20°C° 0.3 mm 5 mps 754 mmHg 92%
    15:00 +20°C° 0.3 mm 4 mps 754 mmHg 91%
    16:00 +20°C° 0.3 mm 4 mps 754 mmHg 90%
    17:00 +20°C° 0.3 mm 4 mps 754 mmHg 90%
    18:00 +20°C° 0.3 mm 4 mps 754 mmHg 91%
    19:00 +20°C° 0.3 mm 4 mps 754 mmHg 91%
    20:00 +19°C° 0.1 mm 3 mps 754 mmHg 93%
    21:00 +19°C° 0.1 mm 3 mps 755 mmHg 94%
    22:00 +18°C° 0.1 mm 3 mps 755 mmHg 95%
    23:00 +18°C° 0 mm 3 mps 755 mmHg 95%

    Day after tomorrow, 20 July, Friday

    Time Temperature Precipitation Wind Pressure Humidity
    00:00 +18°C° 0 mm 3 mps 755 mmHg 95%
    01:00 +17°C° 0 mm 3 mps 755 mmHg 95%
    02:00 +17°C° 0 mm 3 mps 755 mmHg 94%
    03:00 +16°C° 0 mm 3 mps 755 mmHg 94%
    04:00 +16°C° 0 mm 2 mps 755 mmHg 93%
    05:00 +17°C° 0 mm 3 mps 755 mmHg 89%
    06:00 +18°C° 0 mm 3 mps 755 mmHg 84%
    07:00 +19°C° 0 mm 3 mps 755 mmHg 79%
    08:00 +20°C° 0 mm 3 mps 755 mmHg 71%
    09:00 +22°C° 0 mm 3 mps 755 mmHg 64%
    10:00 +25°C° 0 mm 3 mps 755 mmHg 56%
    11:00 +26°C° 0 mm 3 mps 754 mmHg 52%
    12:00 +26°C° 0 mm 3 mps 754 mmHg 48%
    13:00 +27°C° 0 mm 3 mps 754 mmHg 45%
    14:00 +27°C° 0 mm 3 mps 754 mmHg 44%
    15:00 +27°C° 0 mm 3 mps 753 mmHg 43%
    16:00 +28°C° 0 mm 3 mps 753 mmHg 43%
    17:00 +26°C° 0 mm 3 mps 753 mmHg 49%
    18:00 +25°C° 0 mm 2 mps 753 mmHg 55%
    19:00 +24°C° 0 mm 2 mps 753 mmHg 61%
    20:00 +21°C° 0 mm 2 mps 753 mmHg 65%
    21:00 +21°C° 0 mm 1 mps 753 mmHg 69%
    22:00 +20°C° 0 mm 1 mps 753 mmHg 73%
    23:00 +19°C° 0 mm 1 mps 753 mmHg 76%

    21 July, Saturday

    Time Temperature Precipitation Wind Pressure Humidity
    00:00 +18°C° 0 mm 1 mps 753 mmHg 79%
    01:00 +18°C° 0 mm 1 mps 753 mmHg 83%
    02:00 +16°C° 0 mm 1 mps 753 mmHg 83%
    03:00 +16°C° 0 mm 1 mps 752 mmHg 84%
    04:00 +15°C° 0 mm 0 mps 752 mmHg 85%
    05:00 +18°C° 0 mm 1 mps 752 mmHg 79%
    06:00 +20°C° 0 mm 1 mps 752 mmHg 74%
    07:00 +21°C° 0 mm 1 mps 752 mmHg 69%
    08:00 +23°C° 0 mm 1 mps 752 mmHg 63%
    09:00 +25°C° 0 mm 1 mps 752 mmHg 58%
    10:00 +26°C° 0 mm 1 mps 752 mmHg 52%
    11:00 +27°C° 0 mm 1 mps 752 mmHg 50%
    12:00 +27°C° 0 mm 1 mps 752 mmHg 47%
    13:00 +28°C° 0 mm 1 mps 751 mmHg 45%
    14:00 +28°C° 0 mm 1 mps 751 mmHg 45%
    15:00 +28°C° 0 mm 1 mps 751 mmHg 45%
    16:00 +28°C° 0 mm 1 mps 751 mmHg 45%
    17:00 +27°C° 0 mm 1 mps 751 mmHg 51%
    18:00 +26°C° 0 mm 1 mps 751 mmHg 56%
    19:00 +25°C° 0 mm 1 mps 751 mmHg 61%
    20:00 +23°C° 0 mm 1 mps 751 mmHg 63%
    21:00 +21°C° 0 mm 2 mps 751 mmHg 65%
    22:00 +20°C° 0 mm 2 mps 751 mmHg 67%
    23:00 +20°C° 0 mm 2 mps 751 mmHg 69%

    22 July, Sunday

    Time Temperature Precipitation Wind Pressure Humidity
    00:00 +20°C° 0 mm 1 mps 751 mmHg 72%
    01:00 +19°C° 0 mm 1 mps 751 mmHg 74%
    02:00 +19°C° 0 mm 1 mps 751 mmHg 76%
    03:00 +18°C° 0 mm 1 mps 751 mmHg 78%
    04:00 +18°C° 0 mm 1 mps 751 mmHg 80%
    05:00 +19°C° 0 mm 1 mps 751 mmHg 76%
    06:00 +20°C° 0 mm 1 mps 751 mmHg 73%
    07:00 +20°C° 0 mm 2 mps 751 mmHg 69%
    08:00 +23°C° 0 mm 2 mps 752 mmHg 63%
    09:00 +24°C° 0 mm 2 mps 752 mmHg 57%
    10:00 +25°C° 0 mm 3 mps 752 mmHg 51%
    11:00 +26°C° 0 mm 3 mps 752 mmHg 48%
    12:00 +27°C° 0 mm 4 mps 751 mmHg 45%
    13:00 +27°C° 0 mm 4 mps 751 mmHg 42%
    14:00 +27°C° 0 mm 4 mps 751 mmHg 43%
    15:00 +27°C° 0 mm 4 mps 751 mmHg 44%
    16:00 +27°C° 0 mm 4 mps 751 mmHg 45%
    17:00 +26°C° 0 mm 3 mps 752 mmHg 51%
    18:00 +25°C° 0 mm 3 mps 752 mmHg 57%
    19:00 +24°C° 0 mm 3 mps 752 mmHg 63%
    20:00 +21°C° 0 mm 3 mps 752 mmHg 66%
    21:00 +20°C° 0 mm 2 mps 753 mmHg 70%
    22:00 +19°C° 0 mm 2 mps 753 mmHg 73%
    23:00 +19°C° 0 mm 2 mps 753 mmHg 75%

    23 July, Monday

    Time Temperature Precipitation Wind Pressure Humidity
    00:00 +18°C° 0 mm 2 mps 753 mmHg 76%
    01:00 +18°C° 0 mm 2 mps 754 mmHg 78%
    02:00 +17°C° 0 mm 2 mps 754 mmHg 80%
    03:00 +17°C° 0 mm 2 mps 754 mmHg 83%
    04:00 +16°C° 0 mm 1 mps 754 mmHg 85%
    05:00 +18°C° 0 mm 2 mps 755 mmHg 81%
    06:00 +19°C° 0 mm 2 mps 755 mmHg 76%
    07:00 +20°C° 0 mm 2 mps 755 mmHg 72%
    08:00 +21°C° 0 mm 3 mps 755 mmHg 67%
    09:00 +24°C° 0 mm 3 mps 755 mmHg 61%
    10:00 +25°C° 0 mm 3 mps 755 mmHg 55%
    11:00 +26°C° 0 mm 3 mps 755 mmHg 54%
    12:00 +26°C° 0 mm 3 mps 755 mmHg 52%
    13:00 +27°C° 0 mm 3 mps 754 mmHg 50%
    14:00 +27°C° 0 mm 3 mps 754 mmHg 49%
    15:00 +27°C° 0 mm 3 mps 754 mmHg 49%
    16:00 +27°C° 0 mm 3 mps 754 mmHg 49%
    17:00 +26°C° 0 mm 3 mps 754 mmHg 54%
    18:00 +25°C° 0 mm 2 mps 754 mmHg 58%
    19:00 +24°C° 0 mm 2 mps 754 mmHg 63%
    20:00 +21°C° 0 mm 2 mps 755 mmHg 67%
    21:00 +20°C° 0 mm 2 mps 755 mmHg 72%
    22:00 +19°C° 0 mm 2 mps 755 mmHg 76%
    23:00 +18°C° 0 mm 2 mps 755 mmHg 80%
    Show more